Location: Doazon
(43.4500°N, 0.5500°W)
Time: 01:49:04
(UTC+00:00)

Lacrosse 5 rocket - Pass Details

Date: 05 December 2025
Orbit: 405 x 485 km, 57.0° (Epoch: 17 January)

Event Time Altitude Azimuth Distance (km) Brightness Sun altitude
Rises 18:39:05 0° 276° (W) 2,550 6.0 -23.4°
Reaches altitude 10° 18:41:56 10° 298° (WNW) 1,659 4.4 -23.9°
Enters shadow 18:44:16 16° 337° (NNW) 1,317 3.4 -24.3°
